Time,TemperatureF,DewpointF,PressureIn,WindDirection,WindDirectionDegrees,WindSpeedMPH,WindSpeedGustMPH,Humidity,HourlyPrecipIn,Conditions,Clouds,dailyrainin,SolarRadiationWatts/m^2,SoftwareType,DateUTC
2013-02-14 00:02:00,70.0,56.0,-100.00,NE,54,2.0,5.0,61,0.00,,,0.00,0.000000,,2013-02-14 10:02:00,
2013-02-14 00:11:00,70.0,56.0,-100.00,NE,54,2.0,5.0,61,0.00,,,0.00,0.000000,,2013-02-14 10:11:00,
2013-02-14 00:21:00,70.0,56.0,-100.00,NE,54,2.0,5.0,61,0.00,,,0.00,0.000000,,2013-02-14 10:21:00,
2013-02-14 00:42:00,70.0,55.0,-100.00,ENE,77,3.0,6.0,58,0.00,,,0.00,0.000000,,2013-02-14 10:42:00,
2013-02-14 00:52:00,70.0,55.0,-100.00,ENE,77,3.0,6.0,58,0.00,,,0.00,0.000000,,2013-02-14 10:52:00,
2013-02-14 01:01:00,70.0,55.0,-100.00,ENE,77,3.0,6.0,58,0.00,,,0.00,0.000000,,2013-02-14 11:01:00,
2013-02-14 01:11:00,70.0,55.0,-100.00,ENE,77,3.0,6.0,58,0.00,,,0.00,0.000000,,2013-02-14 11:11:00,
2013-02-14 01:21:00,70.0,55.0,-100.00,ENE,77,3.0,6.0,58,0.00,,,0.00,0.000000,,2013-02-14 11:21:00,
2013-02-14 01:42:00,69.0,59.0,-100.00,East,86,2.0,5.0,70,0.00,,,0.00,0.000000,,2013-02-14 11:42:00,
2013-02-14 01:52:00,69.0,59.0,-100.00,East,86,2.0,5.0,70,0.00,,,0.00,0.000000,,2013-02-14 11:52:00,
2013-02-14 02:01:00,69.0,59.0,-100.00,East,86,2.0,5.0,70,0.00,,,0.00,0.000000,,2013-02-14 12:01:00,
2013-02-14 02:11:00,69.0,59.0,-100.00,East,86,2.0,5.0,70,0.00,,,0.00,0.000000,,2013-02-14 12:11:00,
2013-02-14 02:21:00,69.0,59.0,-100.00,East,86,2.0,5.0,70,0.00,,,0.00,0.000000,,2013-02-14 12:21:00,
2013-02-14 02:42:00,69.0,56.0,-100.00,East,97,3.0,7.0,63,0.00,,,0.00,0.000000,,2013-02-14 12:42:00,
2013-02-14 02:53:00,69.0,56.0,-100.00,East,97,3.0,7.0,63,0.00,,,0.00,0.000000,,2013-02-14 12:53:00,
2013-02-14 03:01:00,69.0,56.0,-100.00,East,97,3.0,7.0,63,0.00,,,0.00,0.000000,,2013-02-14 13:01:00,
2013-02-14 03:11:00,69.0,56.0,-100.00,East,97,3.0,7.0,63,0.00,,,0.00,0.000000,,2013-02-14 13:11:00,
2013-02-14 03:21:00,69.0,56.0,-100.00,East,97,3.0,7.0,63,0.00,,,0.00,0.000000,,2013-02-14 13:21:00,
2013-02-14 03:42:00,69.0,57.0,-100.00,East,88,3.0,5.0,65,0.00,,,0.00,0.000000,,2013-02-14 13:42:00,
2013-02-14 03:51:00,69.0,57.0,-100.00,East,88,3.0,5.0,65,0.00,,,0.00,0.000000,,2013-02-14 13:51:00,
2013-02-14 04:01:00,69.0,57.0,-100.00,East,88,3.0,5.0,65,0.00,,,0.00,0.000000,,2013-02-14 14:01:00,
2013-02-14 04:11:00,69.0,57.0,-100.00,East,88,3.0,5.0,65,0.00,,,0.00,0.000000,,2013-02-14 14:11:00,
2013-02-14 04:21:00,69.0,57.0,-100.00,East,88,3.0,5.0,65,0.00,,,0.00,0.000000,,2013-02-14 14:21:00,
2013-02-14 04:42:00,68.0,52.0,-100.00,East,84,3.0,7.0,57,0.00,,,0.00,0.000000,,2013-02-14 14:42:00,
2013-02-14 04:52:00,68.0,52.0,-100.00,East,84,3.0,7.0,57,0.00,,,0.00,0.000000,,2013-02-14 14:52:00,
2013-02-14 05:01:00,68.0,52.0,-100.00,East,84,3.0,7.0,57,0.00,,,0.00,0.000000,,2013-02-14 15:01:00,
2013-02-14 05:11:00,68.0,52.0,-100.00,East,84,3.0,7.0,57,0.00,,,0.00,0.000000,,2013-02-14 15:11:00,
2013-02-14 05:21:00,68.0,52.0,-100.00,East,84,3.0,7.0,57,0.00,,,0.00,0.000000,,2013-02-14 15:21:00,
2013-02-14 05:42:00,68.0,52.0,-100.00,East,86,4.0,9.0,57,0.00,,,0.00,0.000000,,2013-02-14 15:42:00,
2013-02-14 05:52:00,68.0,52.0,-100.00,East,86,4.0,9.0,57,0.00,,,0.00,0.000000,,2013-02-14 15:52:00,
2013-02-14 06:01:00,68.0,52.0,-100.00,East,86,4.0,9.0,57,0.00,,,0.00,0.000000,,2013-02-14 16:01:00,
2013-02-14 06:11:00,68.0,52.0,-100.00,East,86,4.0,9.0,57,0.00,,,0.00,0.000000,,2013-02-14 16:11:00,
2013-02-14 06:21:00,68.0,52.0,-100.00,East,86,4.0,9.0,57,0.00,,,0.00,0.000000,,2013-02-14 16:21:00,
2013-02-14 06:42:00,67.0,52.0,-100.00,East,91,3.0,7.0,58,0.00,,,0.00,0.000000,,2013-02-14 16:42:00,
2013-02-14 06:52:00,67.0,52.0,-100.00,East,91,3.0,7.0,58,0.00,,,0.00,0.000000,,2013-02-14 16:52:00,
2013-02-14 07:01:00,67.0,52.0,-100.00,East,91,3.0,7.0,58,0.00,,,0.00,0.000000,,2013-02-14 17:01:00,
2013-02-14 07:11:00,67.0,52.0,-100.00,East,91,3.0,7.0,58,0.00,,,0.00,0.000000,,2013-02-14 17:11:00,
2013-02-14 07:21:00,67.0,52.0,-100.00,East,91,3.0,7.0,58,0.00,,,0.00,0.000000,,2013-02-14 17:21:00,
2013-02-14 07:22:00,68.0,53.0,-100.00,East,89,4.0,8.0,59,0.00,,,0.00,0.000000,,2013-02-14 17:22:00,
2013-02-14 07:42:00,68.0,53.0,-100.00,East,89,4.0,8.0,59,0.00,,,0.00,0.000000,,2013-02-14 17:42:00,
2013-02-14 07:52:00,68.0,53.0,-100.00,East,89,4.0,8.0,59,0.00,,,0.00,0.000000,,2013-02-14 17:52:00,
2013-02-14 08:01:00,68.0,53.0,-100.00,East,89,4.0,8.0,59,0.00,,,0.00,0.000000,,2013-02-14 18:01:00,
2013-02-14 08:11:00,68.0,53.0,-100.00,East,89,4.0,8.0,59,0.00,,,0.00,0.000000,,2013-02-14 18:11:00,
2013-02-14 08:42:00,68.0,54.0,-100.00,East,94,3.0,7.0,60,0.00,,,0.00,49.000000,,2013-02-14 18:42:00,
2013-02-14 08:52:00,68.0,54.0,-100.00,East,94,3.0,7.0,60,0.00,,,0.00,49.000000,,2013-02-14 18:52:00,
2013-02-14 09:01:00,68.0,54.0,-100.00,East,94,3.0,7.0,60,0.00,,,0.00,49.000000,,2013-02-14 19:01:00,
2013-02-14 09:11:00,68.0,54.0,-100.00,East,94,3.0,7.0,60,0.00,,,0.00,49.000000,,2013-02-14 19:11:00,
2013-02-14 09:21:00,68.0,54.0,-100.00,East,94,3.0,7.0,60,0.00,,,0.00,49.000000,,2013-02-14 19:21:00,
2013-02-14 09:42:00,71.0,55.0,-100.00,ESE,115,2.0,7.0,58,0.00,,,0.00,113.000000,,2013-02-14 19:42:00,
2013-02-14 09:52:00,71.0,55.0,-100.00,ESE,115,2.0,7.0,58,0.00,,,0.00,113.000000,,2013-02-14 19:52:00,
2013-02-14 10:01:00,71.0,55.0,-100.00,ESE,115,2.0,7.0,58,0.00,,,0.00,113.000000,,2013-02-14 20:01:00,
2013-02-14 10:11:00,71.0,55.0,-100.00,ESE,115,2.0,7.0,58,0.00,,,0.00,113.000000,,2013-02-14 20:11:00,
2013-02-14 10:21:00,71.0,55.0,-100.00,ESE,115,2.0,7.0,58,0.00,,,0.00,113.000000,,2013-02-14 20:21:00,
2013-02-14 10:42:00,75.0,57.0,-100.00,SSW,192,2.0,7.0,54,0.00,,,0.00,425.000000,,2013-02-14 20:42:00,
2013-02-14 10:52:00,75.0,57.0,-100.00,SSW,192,2.0,7.0,54,0.00,,,0.00,425.000000,,2013-02-14 20:52:00,
2013-02-14 11:02:00,75.0,57.0,-100.00,SSW,192,2.0,7.0,54,0.00,,,0.00,425.000000,,2013-02-14 21:02:00,
2013-02-14 11:11:00,75.0,57.0,-100.00,SSW,192,2.0,7.0,54,0.00,,,0.00,425.000000,,2013-02-14 21:11:00,
2013-02-14 11:21:00,75.0,57.0,-100.00,SSW,192,2.0,7.0,54,0.00,,,0.00,425.000000,,2013-02-14 21:21:00,
2013-02-14 11:42:00,75.0,56.0,-100.00,West,261,3.0,7.0,52,0.00,,,0.00,458.000000,,2013-02-14 21:42:00,
2013-02-14 11:52:00,75.0,56.0,-100.00,West,261,3.0,7.0,52,0.00,,,0.00,458.000000,,2013-02-14 21:52:00,
2013-02-14 12:02:00,75.0,56.0,-100.00,West,261,3.0,7.0,52,0.00,,,0.00,458.000000,,2013-02-14 22:02:00,
2013-02-14 12:11:00,75.0,56.0,-100.00,West,261,3.0,7.0,52,0.00,,,0.00,458.000000,,2013-02-14 22:11:00,
2013-02-14 12:21:00,75.0,56.0,-100.00,West,261,3.0,7.0,52,0.00,,,0.00,458.000000,,2013-02-14 22:21:00,
2013-02-14 12:42:00,76.0,59.0,-100.00,WSW,258,3.0,9.0,55,0.00,,,0.00,415.000000,,2013-02-14 22:42:00,
2013-02-14 12:52:00,76.0,59.0,-100.00,WSW,258,3.0,9.0,55,0.00,,,0.00,415.000000,,2013-02-14 22:52:00,
2013-02-14 13:01:00,76.0,59.0,-100.00,WSW,258,3.0,9.0,55,0.00,,,0.00,415.000000,,2013-02-14 23:01:00,
2013-02-14 13:11:00,76.0,59.0,-100.00,WSW,258,3.0,9.0,55,0.00,,,0.00,415.000000,,2013-02-14 23:11:00,
2013-02-14 13:21:00,76.0,59.0,-100.00,WSW,258,3.0,9.0,55,0.00,,,0.00,415.000000,,2013-02-14 23:21:00,
2013-02-14 13:42:00,75.0,57.0,-100.00,West,270,3.0,7.0,53,0.00,,,0.00,214.000000,,2013-02-14 23:42:00,
2013-02-14 13:52:00,75.0,57.0,-100.00,West,270,3.0,7.0,53,0.00,,,0.00,214.000000,,2013-02-14 23:52:00,
2013-02-14 14:01:00,75.0,57.0,-100.00,West,270,3.0,7.0,53,0.00,,,0.00,214.000000,,2013-02-15 00:01:00,
2013-02-14 14:11:00,75.0,57.0,-100.00,West,270,3.0,7.0,53,0.00,,,0.00,214.000000,,2013-02-15 00:11:00,
2013-02-14 14:21:00,75.0,57.0,-100.00,West,270,3.0,7.0,53,0.00,,,0.00,214.000000,,2013-02-15 00:21:00,
2013-02-14 14:42:00,74.0,56.0,-100.00,West,266,2.0,6.0,54,0.00,,,0.00,117.000000,,2013-02-15 00:42:00,
2013-02-14 14:52:00,74.0,56.0,-100.00,West,266,2.0,6.0,54,0.00,,,0.00,117.000000,,2013-02-15 00:52:00,
2013-02-14 15:01:00,74.0,56.0,-100.00,West,266,2.0,6.0,54,0.00,,,0.00,117.000000,,2013-02-15 01:01:00,
2013-02-14 15:11:00,74.0,56.0,-100.00,West,266,2.0,6.0,54,0.00,,,0.00,117.000000,,2013-02-15 01:11:00,
2013-02-14 15:21:00,74.0,56.0,-100.00,West,266,2.0,6.0,54,0.00,,,0.00,117.000000,,2013-02-15 01:21:00,
2013-02-14 15:42:00,74.0,57.0,-100.00,West,267,2.0,5.0,55,0.00,,,0.00,111.000000,,2013-02-15 01:42:00,
2013-02-14 15:52:00,74.0,57.0,-100.00,West,267,2.0,5.0,55,0.00,,,0.00,111.000000,,2013-02-15 01:52:00,
2013-02-14 16:01:00,74.0,57.0,-100.00,West,267,2.0,5.0,55,0.00,,,0.00,111.000000,,2013-02-15 02:01:00,
2013-02-14 16:11:00,74.0,57.0,-100.00,West,267,2.0,5.0,55,0.00,,,0.00,111.000000,,2013-02-15 02:11:00,
2013-02-14 16:21:00,74.0,57.0,-100.00,West,267,2.0,5.0,55,0.00,,,0.00,111.000000,,2013-02-15 02:21:00,
2013-02-14 16:42:00,74.0,56.0,-100.00,West,274,2.0,5.0,54,0.00,,,0.00,123.000000,,2013-02-15 02:42:00,
2013-02-14 16:52:00,74.0,56.0,-100.00,West,274,2.0,5.0,54,0.00,,,0.00,123.000000,,2013-02-15 02:52:00,
2013-02-14 17:01:00,74.0,56.0,-100.00,West,274,2.0,5.0,54,0.00,,,0.00,123.000000,,2013-02-15 03:01:00,
2013-02-14 17:11:00,74.0,56.0,-100.00,West,274,2.0,5.0,54,0.00,,,0.00,123.000000,,2013-02-15 03:11:00,
2013-02-14 17:21:00,74.0,56.0,-100.00,West,274,2.0,5.0,54,0.00,,,0.00,123.000000,,2013-02-15 03:21:00,
2013-02-14 17:42:00,74.0,57.0,-100.00,WNW,300,3.0,7.0,55,0.00,,,0.00,110.000000,,2013-02-15 03:42:00,
2013-02-14 17:52:00,74.0,57.0,-100.00,WNW,300,3.0,7.0,55,0.00,,,0.00,110.000000,,2013-02-15 03:52:00,
2013-02-14 18:01:00,74.0,57.0,-100.00,WNW,300,3.0,7.0,55,0.00,,,0.00,110.000000,,2013-02-15 04:01:00,
2013-02-14 18:11:00,74.0,57.0,-100.00,WNW,300,3.0,7.0,55,0.00,,,0.00,110.000000,,2013-02-15 04:11:00,
2013-02-14 18:21:00,74.0,57.0,-100.00,WNW,300,3.0,7.0,55,0.00,,,0.00,110.000000,,2013-02-15 04:21:00,
2013-02-14 18:22:00,74.0,58.0,-100.00,NW,308,2.0,5.0,58,0.00,,,0.00,47.000000,,2013-02-15 04:22:00,
2013-02-14 18:42:00,74.0,58.0,-100.00,NW,308,2.0,5.0,58,0.00,,,0.00,47.000000,,2013-02-15 04:42:00,
2013-02-14 18:52:00,74.0,58.0,-100.00,NW,308,2.0,5.0,58,0.00,,,0.00,47.000000,,2013-02-15 04:52:00,
2013-02-14 19:01:00,74.0,58.0,-100.00,NW,308,2.0,5.0,58,0.00,,,0.00,47.000000,,2013-02-15 05:01:00,
2013-02-14 19:11:00,74.0,58.0,-100.00,NW,308,2.0,5.0,58,0.00,,,0.00,47.000000,,2013-02-15 05:11:00,
2013-02-14 19:42:00,73.0,58.0,-100.00,WNW,298,1.0,3.0,59,0.00,,,0.00,3.000000,,2013-02-15 05:42:00,
2013-02-14 19:52:00,73.0,58.0,-100.00,WNW,298,1.0,3.0,59,0.00,,,0.00,3.000000,,2013-02-15 05:52:00,
2013-02-14 20:02:00,73.0,58.0,-100.00,WNW,298,1.0,3.0,59,0.00,,,0.00,3.000000,,2013-02-15 06:02:00,
2013-02-14 20:11:00,73.0,58.0,-100.00,WNW,298,1.0,3.0,59,0.00,,,0.00,3.000000,,2013-02-15 06:11:00,
2013-02-14 20:21:00,73.0,58.0,-100.00,WNW,298,1.0,3.0,59,0.00,,,0.00,3.000000,,2013-02-15 06:21:00,
2013-02-14 20:42:00,71.0,59.0,-100.00,ENE,57,2.0,4.0,65,0.00,,,0.00,0.000000,,2013-02-15 06:42:00,
2013-02-14 20:52:00,71.0,59.0,-100.00,ENE,57,2.0,4.0,65,0.00,,,0.00,0.000000,,2013-02-15 06:52:00,
2013-02-14 21:01:00,71.0,59.0,-100.00,ENE,57,2.0,4.0,65,0.00,,,0.00,0.000000,,2013-02-15 07:01:00,
2013-02-14 21:11:00,71.0,59.0,-100.00,ENE,57,2.0,4.0,65,0.00,,,0.00,0.000000,,2013-02-15 07:11:00,
2013-02-14 21:21:00,71.0,59.0,-100.00,ENE,57,2.0,4.0,65,0.00,,,0.00,0.000000,,2013-02-15 07:21:00,
2013-02-14 21:42:00,70.0,57.0,-100.00,ENE,74,3.0,6.0,64,0.00,,,0.00,0.000000,,2013-02-15 07:42:00,
2013-02-14 21:52:00,70.0,57.0,-100.00,ENE,74,3.0,6.0,64,0.00,,,0.00,0.000000,,2013-02-15 07:52:00,
2013-02-14 22:01:00,70.0,57.0,-100.00,ENE,74,3.0,6.0,64,0.00,,,0.00,0.000000,,2013-02-15 08:01:00,
2013-02-14 22:11:00,70.0,57.0,-100.00,ENE,74,3.0,6.0,64,0.00,,,0.00,0.000000,,2013-02-15 08:11:00,
2013-02-14 22:21:00,70.0,57.0,-100.00,ENE,74,3.0,6.0,64,0.00,,,0.00,0.000000,,2013-02-15 08:21:00,
2013-02-14 22:42:00,70.0,58.0,-100.00,ENE,76,2.0,5.0,65,0.00,,,0.00,0.000000,,2013-02-15 08:42:00,
2013-02-14 22:53:00,70.0,58.0,-100.00,ENE,76,2.0,5.0,65,0.00,,,0.00,0.000000,,2013-02-15 08:53:00,
2013-02-14 23:01:00,70.0,58.0,-100.00,ENE,76,2.0,5.0,65,0.00,,,0.00,0.000000,,2013-02-15 09:01:00,
2013-02-14 23:12:00,70.0,58.0,-100.00,ENE,76,2.0,5.0,65,0.00,,,0.00,0.000000,,2013-02-15 09:12:00,
2013-02-14 23:21:00,70.0,58.0,-100.00,ENE,76,2.0,5.0,65,0.00,,,0.00,0.000000,,2013-02-15 09:21:00,
2013-02-14 23:42:00,70.0,58.0,-100.00,East,88,2.0,5.0,65,0.00,,,-99.99,0.000000,,2013-02-15 09:42:00,
2013-02-14 23:52:00,70.0,58.0,-100.00,East,88,2.0,5.0,65,0.00,,,-99.99,0.000000,,2013-02-15 09:52:00,